GFSFLT1_sfc_thetae_000.txt.gz
Theta_e
293 292 291 290 290 289 289 288 287 286 285 285 284 282 281 279 278 278 277 277 276 277 276 276 276 276 276 276 277 277 277 278
292 292 291 290 289 288 288 287 286 284 284 283 282 280 279 279 278 277 277 276 276 276 275 275 275 275 274 275 275 273 274 274
293 291 290 289 288 287 287 286 286 284 283 281 280 279 278 277 276 276 275 275 275 274 274 274 274 273 273 272 272 271 271 272
292 290 290 289 288 287 286 286 285 283 282 280 279 278 276 276 276 275 275 274 274 273 272 272 272 272 272 271 271 271 270 271
292 290 290 289 288 287 286 285 284 282 281 279 277 277 275 275 275 274 273 273 272 272 272 271 271 271 271 271 270 270 270 271
292 291 291 287 287 286 286 285 284 281 279 277 276 275 275 274 273 272 272 272 272 271 270 270 269 270 270 270 270 270 271 272
291 289 288 287 287 285 285 284 283 280 277 276 275 274 273 272 271 271 270 270 270 269 269 268 270 273 275 274 272 272 271 270
291 290 288 287 286 284 284 283 281 278 276 274 274 272 271 271 270 270 269 270 269 269 269 269 269 273 274 275 273 272 271 271
289 290 289 287 283 282 282 281 278 277 275 273 272 271 270 269 269 269 269 269 268 268 269 268 269 273 274 274 273 271 271 272
292 291 290 285 283 281 279 277 276 274 273 272 272 270 269 268 268 268 268 268 268 268 267 266 267 270 272 274 271 271 271 273
290 289 285 281 281 279 277 275 274 273 272 272 271 269 268 268 268 268 268 267 268 267 267 267 265 269 272 274 270 268 271 272
286 285 283 280 279 277 275 274 275 273 271 270 269 268 268 267 267 266 266 267 266 266 267 267 268 267 272 274 273 271 272 271
283 282 280 279 278 276 274 274 273 271 269 268 267 267 267 266 265 264 265 264 264 265 267 269 271 271 271 274 275 276 270 270
279 277 277 276 277 275 274 272 270 268 267 265 265 264 264 264 263 263 264 265 265 266 267 267 269 269 271 272 274 274 272 272
275 274 273 273 275 274 273 271 268 266 264 263 263 262 262 264 264 264 264 265 266 267 266 266 267 267 268 269 268 272 272 272
277 277 278 274 274 273 270 268 267 265 264 263 263 263 263 265 265 266 267 267 266 266 265 264 263 265 272 271 270 270 271 264
277 277 277 274 273 270 269 268 266 265 264 263 262 263 264 264 265 270 269 271 271 271 267 265 269 271 272 272 273 271 271 256
277 278 277 273 273 269 268 267 267 266 265 264 264 264 263 263 263 263 268 270 270 270 269 269 269 270 271 271 270 268 264 251
281 279 275 273 273 270 268 267 266 267 265 264 264 264 264 263 263 263 262 262 263 267 268 267 268 269 269 269 263 253 257 251
283 279 272 271 269 267 268 267 267 266 265 265 264 264 264 265 264 263 263 262 260 261 265 262 266 267 266 265 253 249 249 251

GFSFLT1_sfc_thetae_003.txt.gz
Theta_e
289 289 289 289 289 289 289 288 287 287 286 285 285 285 284 282 281 280 280 279 278 277 277 277 277 277 277 277 277 277 278 278
291 291 290 289 288 288 287 287 286 285 285 285 284 284 282 282 281 280 279 278 277 277 276 276 276 276 275 276 276 274 274 275
291 290 288 288 287 287 287 287 287 285 284 284 282 281 281 281 279 278 278 277 277 276 276 275 275 274 274 273 274 273 272 273
290 289 290 289 288 288 287 287 286 283 282 282 281 280 280 278 277 277 276 276 276 275 274 274 273 273 273 272 272 272 272 271
292 290 289 289 288 287 286 286 284 283 282 281 280 280 278 277 276 276 275 274 274 273 272 272 272 272 272 272 271 271 271 271
293 292 290 289 288 287 286 284 284 283 282 281 280 279 277 276 276 274 274 273 273 272 271 271 271 271 271 271 271 270 270 271
292 291 289 288 289 286 286 283 283 282 281 280 278 276 275 275 273 273 272 272 272 271 270 269 271 274 276 273 271 272 271 271
293 291 289 288 287 285 285 283 282 281 280 277 276 275 274 274 273 272 271 271 271 270 270 270 271 276 277 277 274 273 272 272
290 290 290 289 286 286 281 282 282 281 279 276 275 274 273 272 272 271 270 270 269 269 270 270 271 276 277 276 274 273 272 272
293 292 290 289 287 283 281 281 280 279 277 275 275 273 272 271 271 270 269 269 269 269 268 269 270 276 276 275 273 273 272 273
291 289 289 287 282 281 280 279 278 278 277 275 274 273 271 271 270 269 269 268 269 268 267 268 266 273 275 275 273 267 270 272
285 285 285 281 279 279 278 278 278 276 274 273 273 272 271 270 270 268 268 269 268 267 267 266 266 268 275 276 272 270 269 271
284 283 281 279 278 277 277 276 274 274 272 271 271 271 269 268 267 267 267 266 266 266 266 268 268 270 274 275 276 275 269 267
286 281 279 276 278 278 275 273 272 271 271 270 268 268 267 266 265 265 265 265 265 266 266 267 269 269 274 275 274 275 272 272
288 287 286 278 278 279 275 274 271 269 268 267 266 265 266 266 266 266 265 266 267 267 267 267 267 267 268 268 268 272 271 270
285 284 285 284 279 279 274 273 271 270 267 266 266 265 264 266 266 266 268 269 268 268 267 266 266 267 269 269 268 269 269 258
284 282 284 285 280 279 275 273 271 268 266 266 265 265 265 265 266 271 271 273 274 273 269 268 271 273 275 274 273 271 270 256
277 280 282 282 279 278 274 272 270 269 267 266 265 265 265 265 266 265 271 274 274 274 273 272 273 274 274 273 270 269 263 252
270 271 274 277 279 279 274 271 270 270 267 265 265 265 265 266 267 267 267 267 268 273 273 273 273 273 273 270 264 257 255 248
265 267 270 273 277 279 272 270 270 269 266 266 265 266 266 266 267 267 267 266 265 267 270 271 273 273 271 265 258 253 250 247

GFSFLT1_sfc_thetae_006.txt.gz
Theta_e
288 288 287 288 288 288 288 288 287 287 287 286 286 285 285 282 282 282 281 281 279 279 279 278 278 278 277 277 277 277 277 278
290 289 288 287 287 287 287 286 285 286 286 285 284 284 283 282 281 280 280 280 280 279 278 277 277 277 276 276 276 275 275 275
291 290 288 287 286 287 288 287 287 286 285 285 284 283 282 282 281 280 280 279 279 278 277 277 276 276 275 274 275 273 273 274
292 292 292 290 288 288 288 287 287 285 284 283 282 282 283 282 280 280 279 278 278 277 277 276 275 275 275 274 273 273 273 273
294 293 292 291 290 288 288 287 286 285 284 283 282 282 282 282 280 279 279 277 277 277 276 275 274 273 273 273 272 271 272 272
294 294 294 290 290 289 289 287 286 285 283 283 283 283 282 279 279 278 278 277 276 275 274 273 273 273 272 272 271 271 271 271
294 292 290 291 292 289 289 286 285 284 283 283 282 281 279 278 278 277 276 275 275 274 273 271 272 277 278 274 272 271 271 271
291 292 291 292 290 289 288 285 283 284 283 281 280 279 277 277 276 275 275 274 273 273 272 271 272 279 279 277 273 272 272 272
290 291 291 292 291 288 284 283 283 283 281 280 278 277 276 276 275 275 275 274 273 272 272 272 271 280 281 279 274 273 273 272
290 290 289 288 287 285 279 280 281 281 281 279 278 277 275 275 275 275 274 273 273 272 271 271 271 280 281 279 273 273 272 273
290 289 289 288 283 280 278 277 279 280 279 278 278 277 275 275 274 274 274 273 273 271 271 271 270 280 280 279 273 271 271 272
288 287 288 285 281 281 277 277 276 276 274 273 274 274 274 274 273 272 272 271 271 270 269 270 270 275 280 280 272 270 269 270
285 285 287 288 281 282 280 277 273 273 272 272 272 273 273 271 271 271 271 269 269 267 267 269 269 271 278 279 277 275 269 270
283 284 285 287 283 281 283 273 271 273 273 272 270 271 271 270 269 268 269 269 267 267 267 267 268 269 277 279 279 277 272 272
278 279 280 284 285 284 284 276 274 273 272 271 270 269 270 270 269 269 269 268 268 268 267 267 267 269 273 274 276 276 274 272
273 273 274 277 282 285 285 276 274 273 272 270 270 269 269 270 269 270 270 271 269 269 269 268 267 269 272 271 269 269 269 259
269 270 271 273 274 276 282 276 276 273 271 270 269 268 268 268 268 274 273 275 276 275 272 271 273 274 275 275 275 275 273 256
266 267 267 267 268 271 274 277 276 274 272 270 269 268 267 267 266 266 272 275 276 276 275 274 274 276 277 277 277 275 267 255
264 264 264 264 265 267 270 274 276 275 274 270 269 267 267 267 267 268 268 269 271 276 274 276 277 278 277 276 273 264 259 253
261 261 262 263 265 268 270 273 276 274 273 270 268 267 267 268 268 268 269 270 270 271 274 276 278 277 276 272 260 258 256 252

GFSFLT1_sfc_thetae_009.txt.gz
Theta_e
289 288 287 286 286 286 286 287 287 287 287 287 286 286 286 283 283 283 283 282 281 281 281 280 280 279 279 278 278 278 278 278
291 290 289 287 286 287 286 285 285 285 286 286 286 285 285 283 283 283 282 281 281 281 280 280 279 279 278 277 277 277 276 277
291 291 290 289 287 287 287 286 287 286 286 286 285 284 284 283 283 283 282 281 281 281 280 280 279 278 278 276 277 276 275 275
291 292 292 292 289 287 286 287 287 285 285 284 284 283 284 283 282 282 282 280 280 280 279 279 278 277 277 276 276 275 275 275
290 290 291 292 292 290 289 287 285 284 284 284 284 283 284 284 282 281 281 280 279 279 279 278 277 277 276 276 275 274 274 274
289 289 290 290 292 292 292 287 285 284 284 284 285 284 284 283 281 281 280 280 279 278 278 277 277 276 275 275 274 273 272 272
287 288 288 289 289 289 290 290 284 285 285 285 284 283 283 283 281 280 279 279 278 277 277 276 276 281 280 276 273 273 272 271
287 288 288 289 288 288 287 287 288 285 287 284 281 281 281 280 279 279 278 278 277 277 276 275 276 281 282 279 274 273 272 272
287 286 287 288 288 287 286 285 284 285 285 281 281 282 280 279 278 278 278 277 277 277 276 276 275 282 283 280 274 273 273 273
285 287 287 286 287 285 284 284 282 281 281 280 279 280 278 278 277 278 277 277 277 277 275 275 275 282 283 280 273 273 273 273
283 284 285 285 286 285 284 284 282 279 279 277 276 276 277 278 277 277 278 276 276 275 275 275 274 282 283 279 274 272 272 273
280 280 282 283 284 283 284 283 282 277 274 272 273 273 274 276 276 275 275 275 274 273 273 273 274 279 283 282 274 272 272 271
278 278 279 279 280 280 281 284 282 276 273 272 270 272 272 272 270 273 274 273 272 271 270 271 273 278 283 283 278 277 271 271
275 273 275 275 276 275 276 279 283 283 279 275 274 272 274 273 272 272 272 271 270 270 270 269 271 275 282 283 280 278 272 272
272 271 271 272 273 273 275 277 276 278 280 276 273 272 272 272 271 272 270 271 270 269 270 269 269 271 277 279 280 277 274 275
270 269 268 269 270 270 271 272 271 274 277 276 273 272 271 272 271 272 273 273 271 271 271 269 268 270 275 277 277 275 274 267
267 266 266 266 266 267 268 268 268 269 272 275 273 272 271 271 270 276 276 276 278 277 274 272 275 276 277 279 280 277 275 265
264 264 264 263 263 264 265 266 266 267 269 273 273 272 270 270 270 268 273 277 278 279 278 276 276 277 278 279 279 278 274 264
262 261 261 261 260 262 263 264 265 266 268 270 275 272 271 270 269 269 270 271 271 278 277 278 277 278 279 279 278 274 266 263
259 259 259 259 260 262 263 264 265 266 267 270 274 273 271 270 269 269 269 270 271 273 277 276 278 279 279 279 271 264 261 260

GFSFLT1_sfc_thetae_012.txt.gz
Theta_e
291 290 288 287 285 285 285 286 285 285 286 287 287 286 285 284 284 284 284 283 282 282 282 281 281 281 280 280 279 279 278 279
290 291 290 288 286 285 284 284 284 284 285 285 284 284 284 284 284 284 283 283 281 282 282 281 280 280 280 280 279 279 278 278
289 289 289 290 291 290 287 285 285 285 284 284 284 283 283 283 284 283 282 282 282 282 281 281 281 280 280 279 279 278 277 277
288 288 288 288 289 289 290 288 288 286 284 284 283 283 283 284 284 283 283 282 282 282 281 281 280 280 280 279 278 278 277 277
286 287 288 288 288 288 288 288 287 285 283 283 283 284 285 285 283 282 283 282 281 281 281 280 280 279 279 279 277 277 276 276
287 287 286 286 287 288 288 287 286 285 286 285 284 283 284 284 283 282 282 282 281 280 280 280 279 279 278 278 277 276 275 275
287 284 284 285 286 285 286 286 286 285 285 286 284 283 282 283 283 280 281 281 280 280 280 278 279 283 283 280 277 276 275 273
284 283 283 285 286 284 285 285 284 284 284 284 284 283 282 280 281 280 280 280 280 280 279 279 279 284 285 284 278 277 275 274
282 282 283 283 283 284 284 283 284 283 283 283 282 281 281 279 279 279 279 279 279 279 279 279 279 284 286 284 278 277 275 274
281 280 280 280 281 281 279 281 282 283 282 282 281 280 279 279 279 279 279 279 280 280 279 279 279 283 286 284 276 276 275 274
278 279 279 279 280 277 277 278 278 280 281 280 279 277 277 278 277 279 279 279 279 279 279 279 278 282 286 284 275 274 273 274
276 276 277 278 277 275 276 275 276 276 277 281 280 277 276 276 273 274 276 277 276 275 277 277 277 278 285 285 276 275 273 273
275 275 276 275 275 274 273 274 274 274 276 276 277 278 277 274 273 271 274 274 272 270 271 273 274 278 285 285 278 278 274 273
272 273 274 273 272 270 271 271 271 271 271 272 274 277 275 275 274 273 273 272 271 271 270 271 272 275 282 285 281 279 275 274
271 271 270 271 271 269 270 269 268 267 267 269 270 272 277 274 275 273 273 272 272 271 271 270 270 273 277 281 282 279 275 276
270 269 269 269 268 267 267 266 265 265 265 266 267 269 274 275 274 274 275 275 273 273 272 271 270 272 277 281 279 277 273 274
268 267 267 266 265 265 264 264 262 262 263 264 266 267 270 273 273 277 278 278 279 279 276 274 276 277 279 282 283 279 278 272
265 265 264 263 262 262 262 261 261 260 261 263 264 265 267 271 271 271 273 279 280 280 280 279 276 278 279 281 283 281 278 270
262 261 260 260 259 260 260 260 260 260 261 262 264 265 266 268 271 271 271 270 273 279 279 281 279 279 279 281 283 278 275 269
258 258 258 258 258 259 260 259 259 260 261 262 263 264 266 268 270 271 270 270 272 273 277 279 280 278 279 281 278 275 266 267

GFSFLT1_sfc_thetae_015.txt.gz
Theta_e
289 289 289 290 291 290 289 288 287 287 287 288 288 288 287 286 286 287 287 287 286 285 285 285 285 285 284 284 284 284 284 284
288 289 289 289 289 289 289 289 289 289 288 286 287 287 286 285 286 286 286 285 285 285 285 284 284 284 283 284 283 283 283 282
288 288 287 288 288 288 288 288 288 288 288 287 286 285 285 285 285 285 285 284 284 284 284 284 283 283 283 283 282 282 281 281
287 287 286 286 287 287 287 288 287 287 287 287 287 286 285 285 285 284 285 284 284 283 283 283 283 282 283 283 282 282 282 281
287 286 285 285 286 286 286 287 287 286 286 286 286 286 286 286 285 284 284 284 284 283 283 283 282 282 282 282 281 281 281 281
286 285 283 283 284 285 285 285 286 285 285 285 285 285 285 285 285 285 283 284 284 283 283 283 282 281 281 281 282 281 280 280
285 283 281 282 282 282 283 283 283 283 284 284 284 284 283 284 284 284 283 283 283 282 282 282 281 285 286 283 281 281 279 278
282 281 280 280 281 280 281 281 280 281 283 283 283 282 281 282 282 282 282 283 282 282 282 281 282 286 287 286 281 280 280 279
281 280 280 280 280 279 280 278 278 279 279 280 279 278 280 280 281 281 281 281 281 281 282 281 282 285 287 286 282 280 280 279
280 279 279 279 279 278 277 276 277 277 277 277 276 276 279 279 279 280 280 280 281 281 281 281 282 285 286 286 283 280 279 278
278 278 278 278 278 277 275 274 275 275 275 275 275 276 275 276 278 279 279 279 280 280 281 281 281 284 285 286 284 279 278 278
276 276 276 276 275 274 274 273 274 274 273 272 273 273 273 274 277 277 278 278 278 278 279 279 280 280 284 286 284 279 278 276
276 276 276 276 274 273 272 273 272 271 270 270 269 270 271 271 273 276 276 275 277 277 277 277 278 279 282 285 287 282 278 276
274 273 274 274 272 270 272 271 270 268 267 267 267 267 268 269 270 272 275 274 275 275 274 275 275 277 281 283 285 284 278 277
271 271 271 272 272 271 270 269 266 264 265 265 265 265 266 268 269 271 274 274 274 275 274 275 274 274 276 279 281 284 280 278
270 269 269 270 269 268 268 266 264 263 264 263 264 263 264 266 268 270 273 276 274 275 275 274 273 274 276 277 279 280 279 276
267 266 265 265 265 265 264 263 262 261 261 261 262 262 263 264 265 271 274 277 280 280 279 276 278 279 279 280 281 283 279 274
262 262 261 261 260 261 261 260 259 259 259 260 260 261 261 262 263 263 268 274 278 280 281 281 280 279 280 281 282 284 280 273
259 258 258 258 258 259 260 259 258 258 259 259 259 260 261 262 263 264 265 266 271 276 278 280 281 281 280 280 281 280 278 274
257 257 258 258 258 259 259 259 258 258 258 259 259 260 261 262 262 262 264 266 268 272 275 277 282 282 280 281 278 278 275 272

GFSFLT1_sfc_thetae_018.txt.gz
Theta_e
291 290 291 291 292 292 292 291 291 291 292 292 292 292 292 293 292 293 294 294 293 294 293 293 293 292 291 291 291 291 291 291
290 290 290 290 290 290 290 290 289 289 291 291 292 292 291 291 291 291 292 292 292 292 291 291 291 291 290 290 290 289 289 288
290 289 287 287 288 289 288 288 288 288 289 289 290 289 289 290 290 291 290 291 290 290 289 289 290 290 289 289 288 288 287 287
288 288 286 286 286 286 287 287 287 287 287 287 287 287 287 287 288 289 289 289 290 288 288 288 288 288 288 287 288 287 286 287
284 287 285 285 285 285 285 286 285 285 286 286 286 286 286 286 287 287 288 288 287 288 287 287 287 286 286 285 286 286 285 286
283 285 285 284 284 283 283 284 283 283 284 284 285 285 284 284 285 286 286 286 287 286 286 285 285 285 285 284 285 284 284 284
283 284 284 283 283 283 283 283 283 281 282 282 283 283 281 282 283 283 284 285 286 285 285 284 284 286 288 286 284 284 283 283
283 284 284 283 283 282 282 283 282 280 281 281 281 280 279 280 282 281 282 283 283 284 284 284 285 287 287 287 285 283 283 283
283 284 285 284 283 283 282 282 281 280 280 280 279 277 278 278 280 279 281 281 281 282 283 284 284 286 287 287 286 284 284 284
285 284 284 283 282 281 281 280 280 278 278 279 277 275 275 274 276 277 278 280 281 282 282 283 283 286 286 286 285 284 284 283
284 283 282 282 281 279 279 278 278 278 278 278 276 274 273 274 274 276 277 277 279 280 282 282 283 284 285 285 285 284 284 283
282 280 280 280 280 277 277 276 278 278 277 276 275 273 273 273 273 273 273 274 276 278 280 281 282 283 284 285 284 284 284 283
280 279 280 279 277 275 275 276 276 275 274 273 272 272 272 270 270 271 271 272 273 275 277 280 281 282 283 284 285 285 284 284
277 276 276 276 275 273 274 274 273 271 269 269 269 269 269 268 268 269 270 270 272 274 276 278 280 281 282 283 284 284 284 284
273 271 271 272 272 271 270 270 268 266 266 267 266 267 267 268 268 268 268 269 271 273 275 277 278 279 280 280 280 282 283 284
269 268 268 268 267 267 266 265 263 263 263 264 264 264 264 265 266 266 268 269 269 271 272 274 275 278 280 279 278 280 281 282
265 265 264 263 263 262 262 262 260 260 261 261 262 262 262 262 263 267 269 270 272 274 274 275 277 280 281 281 281 281 282 279
262 262 261 261 260 261 261 260 260 259 260 261 261 261 261 261 261 260 264 268 270 272 274 275 276 279 282 282 282 281 282 278
260 259 259 259 259 261 261 260 260 260 260 260 260 260 260 260 261 261 261 261 263 268 270 273 277 279 281 283 282 278 280 279
258 258 259 259 259 260 260 259 259 260 261 261 261 261 261 261 261 261 261 262 263 264 268 271 275 278 280 281 280 277 278 278

GFSFLT1_sfc_thetae_021.txt.gz
Theta_e
292 291 291 292 292 291 291 289 289 290 291 291 291 292 293 293 293 293 293 294 294 295 295 295 295 294 294 293 293 292 292 293
291 290 289 289 289 289 289 288 288 288 289 290 290 290 289 289 290 291 291 292 291 292 292 292 292 293 293 292 291 291 291 291
289 289 287 287 287 287 287 287 287 287 288 288 287 288 287 287 287 289 289 290 290 290 289 290 290 291 290 290 289 289 289 289
286 287 286 285 286 285 285 285 286 285 286 286 286 286 285 284 286 286 287 287 289 288 288 288 288 289 289 289 288 289 289 289
285 285 286 285 285 285 284 285 285 284 284 284 284 284 284 283 283 285 285 285 286 286 286 287 287 287 287 287 287 287 288 288
284 285 286 285 285 285 285 285 285 284 282 282 283 283 283 282 282 283 284 284 284 284 285 285 286 285 285 286 286 285 286 287
284 284 285 285 285 284 284 285 284 283 282 282 282 281 281 281 280 281 282 282 282 282 283 283 284 287 288 287 285 285 284 284
284 284 285 285 286 284 284 285 283 282 281 281 281 280 280 279 278 279 279 280 280 281 282 282 283 286 287 288 286 285 284 284
285 285 286 286 285 285 284 283 282 281 281 280 280 279 279 277 277 277 278 278 278 279 280 281 282 285 286 287 286 285 285 285
287 286 286 285 284 283 282 281 281 280 280 280 279 278 277 275 275 276 276 276 276 277 277 278 280 283 284 284 284 284 284 285
286 286 284 284 282 280 279 279 278 278 278 279 278 277 275 275 274 275 274 275 275 275 276 276 277 281 283 283 283 283 283 284
285 282 282 281 279 277 277 276 277 277 276 276 276 275 275 274 274 273 272 272 271 272 273 274 276 278 282 283 282 282 282 283
280 279 279 278 276 274 273 275 274 272 271 271 271 271 272 270 270 270 269 269 269 269 271 273 275 278 281 283 284 284 282 282
276 274 274 274 273 270 271 270 269 267 265 265 266 267 267 267 267 267 267 267 267 268 269 270 274 276 280 282 283 284 282 283
272 270 269 270 270 268 268 266 264 262 262 263 263 263 263 264 265 264 264 264 265 266 266 268 270 273 277 279 280 281 281 281
268 267 267 267 266 265 265 263 261 261 261 261 262 262 262 263 263 263 264 264 263 264 265 265 266 269 274 275 278 279 279 279
266 265 264 264 263 263 263 262 260 260 260 261 261 261 262 261 261 266 267 268 269 270 269 268 272 274 275 276 278 279 281 279
263 263 262 261 261 261 261 261 260 259 260 260 260 261 260 261 260 259 263 267 268 269 270 271 271 273 274 276 277 278 279 278
261 260 260 259 259 262 262 261 260 259 259 260 260 261 261 261 261 261 260 260 261 265 267 269 271 272 273 274 276 275 277 279
259 258 259 260 260 262 262 260 259 259 259 260 261 262 262 262 262 262 262 261 262 263 266 267 269 271 273 275 272 275 276 278

GFSFLT1_sfc_thetae_024.txt.gz
Theta_e
287 286 286 286 287 286 286 285 285 286 286 287 286 287 286 286 286 287 288 289 288 288 288 288 289 289 288 287 287 287 286 288
287 286 285 285 285 284 285 284 283 285 286 285 284 284 284 283 284 285 285 287 287 287 286 286 286 287 286 286 286 286 286 286
286 285 284 284 283 284 284 283 284 284 283 284 284 283 282 282 282 283 284 284 285 286 285 286 286 286 285 285 286 285 285 285
285 284 284 284 284 283 283 283 284 283 282 282 281 281 281 279 280 281 282 282 282 283 284 283 284 284 285 285 285 285 285 286
281 282 283 283 282 282 283 283 283 283 281 280 280 280 280 280 279 279 280 280 280 281 282 283 283 283 284 284 284 284 285 285
281 281 281 282 282 282 282 282 281 281 280 280 280 280 279 279 278 278 278 280 280 279 280 280 282 283 283 283 282 283 284 284
282 282 282 282 282 283 281 281 281 279 278 280 279 279 278 277 277 277 277 277 277 278 278 278 280 284 285 285 283 284 283 283
282 281 282 282 283 281 281 281 277 276 277 277 277 277 278 278 277 277 276 276 276 276 277 277 278 283 284 285 283 283 283 283
281 282 282 282 281 281 280 278 278 277 277 277 277 277 277 276 276 276 275 275 275 275 275 275 277 281 283 284 282 282 282 283
281 282 281 280 279 278 277 277 277 277 277 276 275 275 276 275 275 275 275 274 274 274 273 273 274 279 280 281 279 280 280 282
281 281 279 278 278 276 275 274 274 275 275 275 274 273 272 273 273 274 273 273 274 273 273 273 272 276 278 278 276 276 278 280
278 278 277 277 275 273 273 272 272 272 271 270 269 268 268 269 269 269 269 270 269 269 270 270 271 271 276 277 275 276 277 278
276 276 275 274 272 270 269 271 269 267 266 265 264 264 265 264 264 265 265 265 265 266 266 268 269 272 274 276 277 278 276 277
271 271 272 269 268 267 267 267 266 263 261 261 262 262 262 261 261 261 262 262 262 263 263 264 267 268 272 274 275 276 275 278
267 265 265 266 267 264 265 264 262 260 260 261 260 260 261 262 262 261 261 260 261 260 260 261 263 264 266 267 268 271 274 278
265 265 265 265 264 262 263 261 260 260 260 260 260 260 260 261 261 261 263 263 262 263 264 264 264 266 269 270 268 269 271 273
263 263 262 261 261 261 259 258 259 259 260 259 259 259 260 260 260 265 267 269 270 270 269 268 271 272 272 273 273 274 275 272
261 261 260 259 259 259 259 258 260 258 259 259 259 259 259 259 259 258 262 267 269 269 270 271 271 272 272 273 273 274 274 270
259 257 256 256 257 259 258 260 260 260 259 259 259 258 259 259 260 260 260 259 261 266 268 270 271 272 272 273 273 269 270 269
255 255 255 255 257 259 261 260 259 259 259 259 259 260 260 261 261 261 261 261 262 263 266 267 270 271 272 273 269 268 268 269

GFSFLT1_sfc_thetae_027.txt.gz
Theta_e
285 286 285 285 284 284 284 283 283 284 284 284 284 284 283 283 283 283 284 285 285 285 285 285 286 286 286 285 285 285 285 286
284 284 284 284 284 285 285 284 283 283 283 283 283 283 282 282 282 281 282 283 283 283 283 283 283 284 284 284 284 284 285 285
285 283 283 283 283 282 282 283 283 283 283 284 284 283 282 280 281 280 280 281 282 282 281 281 281 282 282 282 283 283 283 284
283 283 282 282 282 281 282 282 283 281 281 281 281 280 280 280 281 281 279 278 280 280 280 280 281 281 281 281 282 283 283 284
280 281 281 281 280 280 280 281 282 280 280 279 278 279 279 280 279 279 279 278 278 280 279 280 279 280 280 281 281 281 282 283
280 280 280 280 281 281 280 281 280 280 279 279 279 279 278 278 278 278 278 278 278 278 278 278 279 279 279 280 281 281 281 282
280 280 280 281 281 281 281 280 280 279 278 279 278 279 279 279 279 278 278 277 277 276 276 276 277 281 282 282 280 281 281 281
280 280 279 280 281 280 280 279 276 275 276 277 278 278 278 278 278 277 277 277 276 276 275 275 276 280 281 281 280 279 280 280
279 279 280 281 280 279 278 277 277 275 274 274 276 275 275 275 275 275 275 275 275 275 275 275 275 279 279 279 278 277 278 279
280 281 279 278 277 277 276 276 275 275 274 274 272 271 271 270 270 271 271 271 272 273 272 272 273 277 278 277 275 274 275 276
280 279 277 276 276 274 274 272 272 273 272 271 270 267 266 267 266 267 267 268 269 268 269 269 269 273 274 274 272 271 272 273
277 277 275 274 273 271 271 269 270 269 268 267 266 265 264 264 264 264 263 264 263 264 265 265 267 267 272 273 271 271 271 272
275 275 274 272 270 269 268 269 267 265 264 263 262 262 263 261 261 261 261 260 261 261 262 264 265 268 269 271 272 273 269 270
270 270 271 268 267 265 266 265 264 259 258 259 261 261 261 260 260 260 260 260 260 261 261 261 264 264 268 270 271 271 269 269
267 265 264 265 266 263 263 263 255 254 258 260 260 260 260 261 261 260 259 259 260 260 260 261 263 264 265 266 265 268 268 269
265 264 264 264 262 259 262 257 257 258 260 260 260 259 259 260 260 260 262 263 262 264 265 265 265 266 271 272 271 270 271 269
264 263 261 258 258 257 256 254 255 258 260 259 260 259 260 259 259 265 267 268 270 271 270 268 271 273 273 274 275 275 275 271
263 262 259 256 257 256 255 252 253 257 259 259 259 259 258 258 258 258 262 267 268 269 270 271 272 273 274 275 275 276 275 269
260 258 255 254 254 256 253 252 254 257 259 259 259 259 258 259 259 259 259 259 260 266 268 270 271 272 273 275 274 270 270 269
256 254 254 252 254 254 253 254 255 258 258 258 258 259 259 259 259 260 260 260 261 262 265 265 268 270 270 270 266 265 265 267

GFSFLT1_sfc_thetae_033.txt.gz
Theta_e
283 283 282 282 281 281 280 280 280 281 281 280 280 280 279 279 279 279 278 279 279 279 279 279 280 280 280 280 280 280 281 282
283 283 282 282 281 280 280 279 279 280 280 279 279 279 279 278 278 278 279 278 278 279 278 278 278 278 278 278 279 279 279 280
281 281 281 280 279 279 280 280 280 280 279 279 279 279 278 278 278 278 278 278 278 278 278 278 278 277 277 277 277 277 277 278
280 280 279 279 279 279 279 280 280 279 279 279 279 278 278 278 279 278 278 278 278 278 277 277 277 277 277 277 276 276 277 277
279 279 279 279 279 278 279 279 280 279 278 278 278 278 278 278 278 277 277 277 277 277 277 277 277 277 277 277 276 276 277 278
280 280 279 279 278 278 278 278 278 278 278 278 278 278 277 276 275 276 276 276 275 275 274 275 275 276 276 277 277 277 277 277
280 279 280 280 279 279 278 278 278 278 276 277 275 275 274 273 273 273 272 272 272 272 272 272 273 276 278 277 276 276 276 276
279 279 279 279 280 278 278 278 275 274 271 271 272 272 271 271 270 270 269 270 269 269 269 269 269 273 275 275 274 273 272 273
278 278 279 278 278 278 277 275 274 272 270 270 270 268 269 268 267 267 267 267 267 267 267 267 268 272 272 273 271 271 271 271
279 278 278 278 277 276 274 274 273 272 271 270 268 265 266 263 265 265 265 265 264 266 265 264 264 269 271 271 269 269 269 270
279 278 277 276 276 274 272 270 270 271 270 268 267 262 262 264 263 264 262 264 264 264 263 263 262 267 269 270 268 267 268 269
278 278 277 275 273 271 270 269 269 268 267 265 265 261 261 261 262 261 261 262 260 261 261 262 263 263 269 271 269 268 267 268
277 276 274 272 271 269 268 268 266 265 263 261 258 259 261 255 258 257 258 258 258 259 260 262 263 266 268 271 272 273 269 268
275 273 271 269 268 267 267 266 264 261 258 254 257 259 259 255 258 258 257 257 258 259 259 261 263 264 269 271 272 273 271 271
271 270 267 266 267 264 264 263 256 258 257 258 256 257 257 260 260 257 257 258 259 259 260 262 264 267 268 268 268 271 272 273
271 270 266 265 264 261 262 260 259 257 259 259 257 255 257 258 259 260 261 262 263 265 265 265 265 267 272 273 271 271 273 273
267 266 264 262 261 259 257 257 256 258 259 258 258 257 259 258 258 264 267 268 270 271 269 268 271 272 273 274 274 274 274 268
264 263 261 259 259 258 258 255 254 254 257 256 258 257 257 257 257 256 260 266 266 268 269 270 270 271 272 272 272 269 268 258
261 259 257 255 257 259 253 252 254 254 255 254 255 254 254 255 256 256 255 255 257 263 265 268 269 271 270 269 265 258 259 258
257 254 254 253 258 256 253 254 255 253 253 254 253 254 255 255 256 256 256 256 256 258 261 262 266 268 267 266 256 257 257 258

GFSFLT1_sfc_thetae_036.txt.gz
Theta_e
282 282 281 280 279 279 279 279 279 279 279 279 278 278 278 278 278 278 278 278 278 278 278 277 278 277 277 277 278 277 277 278
282 282 281 280 279 279 278 278 279 279 279 278 278 278 278 278 278 278 278 278 278 278 277 277 277 277 276 276 276 276 276 277
282 281 280 279 279 278 278 278 279 279 279 279 279 278 278 277 278 278 277 278 277 277 277 277 276 276 276 275 275 275 275 276
281 280 279 279 279 278 279 279 279 279 278 278 278 278 277 277 277 277 277 276 276 276 276 275 276 275 276 276 275 275 275 276
280 279 279 279 278 278 278 279 279 279 278 278 278 277 277 277 276 276 275 274 274 273 273 273 274 274 275 276 275 275 276 277
280 280 279 278 278 278 277 278 278 278 277 277 278 277 276 274 274 273 273 272 272 272 271 272 272 273 274 274 274 274 274 275
281 281 280 280 279 279 277 277 278 277 277 277 275 274 273 272 272 271 271 270 270 270 269 269 270 273 275 275 273 272 272 271
280 280 280 280 281 278 278 277 275 274 272 271 271 271 270 270 269 269 268 268 268 268 268 267 268 272 274 274 272 271 271 270
280 279 279 279 278 278 278 276 275 273 270 270 270 268 268 267 267 267 267 266 266 266 266 266 267 271 272 273 271 270 270 270
280 278 277 278 277 277 275 275 273 272 271 269 268 265 266 263 264 264 264 264 263 265 264 263 263 269 271 271 270 269 269 269
279 278 277 277 277 275 273 272 271 272 271 269 267 262 262 264 262 263 261 264 264 264 263 263 262 267 270 271 269 267 268 269
277 278 278 276 274 273 271 271 270 269 267 266 265 262 261 260 261 259 258 262 259 260 261 261 262 263 269 272 270 269 269 269
277 276 277 274 274 272 271 269 267 266 265 264 261 261 262 255 256 255 255 255 256 257 259 262 263 266 269 272 273 274 270 270
276 276 274 271 272 271 269 266 264 262 260 259 261 261 261 255 257 257 255 254 257 259 259 261 264 265 270 272 273 274 272 272
271 271 271 268 269 267 266 264 260 256 260 260 258 260 259 260 260 256 255 256 258 258 259 261 266 267 267 268 271 273 272 273
272 273 271 267 265 263 263 261 258 257 260 260 260 259 259 260 259 259 260 260 259 261 265 265 264 267 273 273 272 272 272 270
270 268 266 265 263 260 260 259 258 259 260 260 260 260 259 259 258 264 267 269 271 271 270 268 271 272 273 274 274 273 271 261
266 264 262 261 261 259 258 256 256 258 260 260 260 259 258 258 256 255 259 265 267 268 269 269 271 271 272 272 272 268 265 254
262 262 261 261 261 259 257 255 254 256 258 257 258 257 256 254 254 255 254 254 256 261 264 267 268 270 270 269 264 257 257 250
261 261 258 255 256 256 254 254 256 257 257 256 256 255 255 255 256 254 254 254 254 255 259 260 265 267 266 265 250 254 256 256

GFSFLT1_sfc_thetae_042.txt.gz
Theta_e
288 287 287 287 287 286 286 286 286 286 287 286 286 286 286 286 285 285 285 284 283 283 283 283 283 283 283 283 283 282 283 282
289 288 287 287 287 286 286 286 286 286 286 286 286 286 286 285 285 284 284 283 282 282 281 281 281 281 281 281 281 280 281 282
290 289 286 285 286 286 286 286 286 286 286 286 285 285 285 285 284 284 282 282 281 280 280 279 279 279 279 279 279 279 279 279
290 289 288 286 285 285 286 286 286 285 285 285 285 285 285 284 283 282 281 280 279 278 278 277 277 277 278 278 278 278 278 278
290 290 290 288 286 285 285 286 285 285 285 285 285 285 284 283 282 280 279 278 277 277 276 276 276 276 276 277 278 278 277 277
291 291 290 288 287 286 285 285 285 284 284 285 285 285 283 281 279 278 277 276 276 275 275 275 274 275 276 277 277 276 276 276
291 291 289 288 287 286 285 284 285 284 284 285 284 282 280 278 277 276 275 275 274 273 273 273 273 273 276 276 276 275 274 274
290 290 289 288 288 286 285 285 284 283 283 283 282 280 279 277 275 275 274 274 273 272 272 272 272 272 275 275 275 275 274 273
289 289 289 288 287 287 286 284 282 283 282 281 280 279 277 275 274 274 273 272 272 272 271 271 271 272 273 275 275 274 273 273
291 290 288 287 287 285 282 282 282 281 281 280 279 277 275 273 273 273 272 271 271 271 270 269 269 271 273 273 274 273 273 273
287 286 286 285 283 282 282 281 281 282 281 280 278 275 273 273 272 272 271 271 270 270 269 268 267 269 271 273 274 273 273 274
284 283 283 281 281 281 281 280 282 282 279 277 275 273 273 272 271 270 269 269 267 267 268 267 268 268 271 273 273 273 273 274
282 281 282 281 280 280 279 282 279 278 276 274 272 272 270 268 268 267 267 266 266 266 267 269 268 269 271 273 274 275 274 273
281 280 280 280 280 280 281 277 275 274 272 270 269 269 268 267 267 267 267 267 268 268 268 269 269 270 271 272 274 275 274 275
278 278 279 279 278 280 276 274 272 272 270 268 267 267 266 268 268 268 268 268 268 268 268 268 269 270 271 272 273 274 275 274
278 278 279 279 278 277 274 272 272 271 269 269 268 267 268 268 269 268 269 269 268 267 267 268 269 271 272 274 274 275 275 271
277 277 278 276 275 271 270 270 271 270 269 269 269 268 268 268 268 270 271 271 272 273 273 273 272 274 274 274 275 275 272 268
276 275 274 272 271 267 267 268 268 271 270 269 267 268 267 267 266 266 268 269 270 271 272 273 274 273 273 274 274 270 268 264
270 268 268 267 266 265 265 266 265 267 265 268 268 267 267 266 266 265 264 264 265 266 267 268 270 271 272 272 271 265 263 261
264 263 264 263 261 262 262 262 263 264 265 265 265 265 264 264 263 263 263 262 262 262 263 264 266 268 269 269 264 261 260 261

GFSFLT1_sfc_thetae_045.txt.gz
Theta_e
291 290 289 289 288 289 288 287 288 288 288 288 288 288 288 288 287 286 286 285 285 284 284 284 284 283 284 284 284 283 284 283
291 290 290 289 288 288 288 288 287 288 288 288 288 288 288 287 286 286 285 284 284 283 283 282 282 282 282 282 281 281 281 282
291 290 289 288 288 287 287 287 288 288 288 287 287 287 287 286 286 286 284 284 283 282 281 281 280 280 280 280 280 280 279 280
291 289 288 288 288 287 287 287 288 287 287 287 286 286 286 286 285 285 284 283 281 280 280 279 279 278 279 278 279 279 279 279
291 291 289 288 287 287 287 288 287 287 287 286 286 286 286 286 285 283 283 281 280 279 278 278 277 277 277 278 278 278 278 278
292 292 291 290 288 288 288 287 287 286 286 286 287 287 286 285 283 282 281 280 279 278 277 277 276 276 276 277 278 277 277 277
292 292 291 291 290 288 288 287 287 285 285 286 286 285 284 282 280 279 278 278 277 276 276 275 275 276 276 277 276 276 276 275
292 292 292 292 291 289 288 287 285 284 284 284 285 283 282 281 279 278 277 277 276 275 275 274 275 276 276 276 276 275 275 275
293 294 293 293 291 291 288 286 284 284 284 283 283 281 281 279 277 277 277 276 275 274 274 274 274 275 275 276 275 275 275 275
294 294 292 290 289 287 285 285 283 283 283 282 282 280 279 277 276 277 276 275 274 274 273 272 273 274 274 275 274 274 274 275
290 289 287 288 287 284 283 282 282 282 283 283 282 280 278 277 276 277 276 275 274 273 273 271 270 273 274 274 273 273 274 275
286 285 286 284 283 282 282 281 283 283 282 281 281 279 278 277 276 274 273 273 272 271 271 271 270 270 274 275 273 273 273 274
283 282 283 282 282 282 281 283 282 281 279 278 277 277 276 274 273 272 271 270 269 269 269 271 271 271 272 275 276 276 273 273
282 281 281 281 281 281 282 280 278 277 276 275 274 274 273 271 271 270 269 270 270 270 270 271 272 271 274 275 275 276 274 275
280 279 279 280 279 281 279 277 275 275 273 272 271 271 270 271 272 271 271 270 270 271 271 271 271 271 272 272 273 274 275 276
279 279 279 279 279 279 276 274 275 275 273 273 272 270 270 270 271 271 272 273 271 272 271 270 270 271 273 273 272 274 275 273
278 277 277 277 276 275 273 273 274 274 273 273 272 271 271 271 270 274 274 274 274 274 271 270 273 274 275 276 276 276 274 268
276 275 275 274 273 269 269 269 270 275 274 273 271 272 270 270 270 269 272 274 275 275 276 276 276 276 276 276 275 275 269 264
273 270 270 268 265 266 267 267 266 270 267 271 270 271 270 270 269 269 267 267 268 271 271 272 272 273 274 274 274 268 266 262
266 265 265 263 261 263 263 265 266 268 268 268 268 268 267 267 267 266 265 265 265 265 266 267 269 271 272 273 269 266 262 262

GFSFLT1_sfc_thetae_048.txt.gz
Theta_e
288 286 286 285 284 285 285 285 285 285 285 285 285 284 284 283 282 281 281 282 281 280 280 280 280 279 279 278 278 278 278 279
288 287 286 285 284 284 284 284 284 285 284 284 284 284 284 283 282 281 281 281 280 280 279 279 278 278 277 277 277 277 277 277
288 287 285 285 284 284 284 284 284 284 284 284 284 283 282 282 282 281 280 280 279 279 278 278 278 277 277 276 276 276 276 276
288 286 286 285 284 284 284 284 284 284 283 282 282 282 281 281 281 280 279 278 278 278 277 277 277 276 276 276 276 275 275 276
288 287 286 285 284 284 284 284 284 283 283 281 281 281 281 281 280 279 279 278 277 277 276 276 276 275 276 276 275 275 276 276
288 287 286 285 285 284 284 284 284 283 282 282 281 281 281 280 279 279 278 277 277 276 275 275 275 275 275 276 275 275 275 275
289 288 286 285 285 284 284 283 283 283 282 282 282 281 281 279 278 278 277 276 276 275 275 274 275 278 277 277 276 276 275 274
290 289 289 287 286 284 284 283 282 281 281 281 281 282 280 279 277 276 275 275 274 274 274 273 274 278 278 278 276 275 274 275
291 291 289 288 287 286 283 282 282 282 282 281 282 280 278 277 276 275 275 274 273 273 273 273 273 278 278 278 275 274 274 274
292 291 290 288 288 285 283 282 282 282 282 282 281 279 278 277 275 275 274 272 272 272 270 270 271 277 278 277 274 274 274 275
290 289 288 286 286 285 283 282 281 282 282 282 281 280 278 277 275 274 271 273 273 272 270 270 268 276 277 277 273 268 272 273
287 286 285 284 283 281 281 281 282 281 280 279 279 279 278 276 272 273 271 272 270 270 269 269 269 269 276 277 274 271 270 271
283 282 282 282 282 280 280 281 279 278 278 278 278 277 276 274 269 270 270 267 266 266 267 269 270 272 274 276 278 276 271 269
280 279 280 279 280 279 278 278 276 276 276 273 272 273 273 271 269 267 267 268 267 267 267 267 270 270 275 276 277 278 275 274
278 277 276 274 277 276 276 276 275 273 272 271 271 269 268 270 269 269 267 267 267 268 268 266 267 268 269 270 270 274 274 274
278 276 275 274 273 272 273 273 272 271 270 268 268 268 266 267 268 269 267 269 264 265 264 264 265 268 271 270 266 266 270 271
274 273 272 272 270 268 268 270 270 269 269 268 267 266 266 266 264 274 274 275 277 277 270 264 273 275 276 277 278 278 278 272
272 271 271 269 266 264 264 266 265 267 268 267 267 266 265 263 264 262 268 276 277 277 277 277 278 278 278 278 278 279 278 262
269 266 266 263 260 260 260 263 264 263 265 265 262 263 262 262 263 262 261 262 263 269 272 273 274 275 275 276 276 272 271 256
264 263 262 260 258 257 258 261 260 263 261 262 262 261 261 262 262 262 262 259 256 257 264 266 270 271 272 273 270 269 268 262

GFSFLT1_sfc_thetae_051.txt.gz
Theta_e
286 286 286 286 284 284 285 285 285 285 286 285 284 284 283 283 282 281 281 281 280 279 279 279 279 279 278 277 277 277 277 277
286 285 285 284 284 284 284 284 284 285 284 284 283 283 283 282 281 280 280 280 279 279 279 278 278 277 277 276 276 276 276 276
287 285 284 284 283 283 283 283 284 284 284 283 283 283 282 281 280 280 279 279 279 279 278 278 277 277 276 276 276 276 276 276
286 284 284 284 283 283 283 284 284 284 283 282 282 281 281 280 280 279 278 278 278 278 277 277 277 276 276 276 276 275 275 275
286 286 285 285 284 283 283 284 283 283 283 282 281 281 281 280 279 279 278 277 277 277 277 276 276 276 276 276 275 275 275 276
287 286 285 284 283 283 284 284 284 283 282 282 282 281 280 280 279 278 278 277 277 276 275 275 275 275 275 276 275 275 275 275
288 287 285 285 284 283 284 284 284 283 282 282 281 281 280 280 279 278 277 277 276 275 274 273 275 279 280 277 276 276 275 274
288 287 286 286 286 284 284 284 283 283 282 281 282 281 281 281 279 278 277 275 275 274 274 274 274 280 281 280 276 275 275 274
290 289 287 286 286 285 283 283 283 282 282 282 281 281 280 279 279 277 275 275 274 274 274 273 274 280 281 280 276 275 274 274
291 290 288 286 286 284 282 283 282 282 282 282 282 281 280 279 278 277 276 274 274 273 272 272 272 280 281 280 275 274 274 274
289 289 288 287 285 284 283 282 282 282 282 283 283 282 280 280 278 277 276 276 274 274 272 271 270 278 280 279 274 268 272 272
289 288 288 287 285 284 282 281 283 282 281 281 281 281 281 279 276 273 274 273 272 271 271 270 270 270 279 280 275 272 270 270
284 283 283 284 284 281 281 282 279 279 279 280 280 280 278 277 273 273 272 271 270 269 268 270 270 272 276 278 279 278 270 269
283 281 281 280 282 280 278 278 277 277 277 276 275 276 276 275 271 269 270 271 270 269 270 269 269 270 276 277 278 279 277 275
278 277 275 274 276 274 275 275 274 273 271 270 272 268 267 270 271 271 269 269 269 268 268 264 266 269 269 270 271 276 277 276
276 274 273 272 271 269 271 272 271 269 269 269 267 267 267 267 267 268 266 270 265 263 264 263 265 269 272 270 267 267 270 269
271 273 269 270 267 264 265 269 271 269 269 268 267 266 266 266 265 274 274 275 277 276 270 265 273 275 276 277 278 278 278 272
274 273 271 269 266 262 263 267 266 267 267 266 267 266 265 263 264 263 266 277 278 278 278 278 277 278 279 279 279 280 280 275
270 267 265 263 259 260 259 262 262 265 267 266 265 264 263 262 261 260 260 260 261 270 272 273 274 275 276 276 276 271 271 271
265 262 262 260 257 257 259 263 262 264 262 262 261 260 261 261 261 259 259 259 260 262 265 264 269 270 271 271 259 258 261 262

GFSFLT1_sfc_thetae_054.txt.gz
Theta_e
288 288 288 288 286 286 288 286 285 285 285 285 285 284 284 283 281 281 280 280 279 279 278 279 279 279 278 277 277 277 276 277
287 287 286 286 284 284 284 284 284 285 285 284 284 283 283 281 281 280 280 279 279 279 279 278 278 278 277 277 276 276 276 276
285 285 284 283 283 283 283 284 284 284 284 284 283 282 281 281 280 280 280 279 279 279 278 278 277 277 277 276 276 276 276 276
284 284 284 284 284 283 283 284 283 283 283 282 282 282 281 280 280 280 279 278 278 278 277 277 277 276 276 276 276 275 275 275
285 284 285 285 284 283 284 284 284 283 283 282 282 282 281 280 280 279 279 278 278 278 277 277 276 276 276 276 275 275 275 275
285 285 285 285 284 284 284 284 284 283 282 282 282 282 281 280 280 279 278 278 278 277 276 276 275 276 275 276 275 275 275 275
287 286 285 284 284 284 284 283 283 283 282 282 281 281 281 280 279 279 278 277 277 277 276 274 275 280 281 277 275 276 275 274
287 287 286 285 285 283 284 283 283 283 283 282 282 281 281 280 280 279 278 278 277 276 275 275 275 281 283 282 276 275 275 275
289 288 287 286 285 284 283 283 283 283 283 282 282 281 281 280 279 279 278 277 277 276 276 275 275 281 283 283 277 276 275 274
291 289 288 286 285 284 282 283 283 282 283 282 282 282 280 280 279 279 278 277 276 277 275 275 275 281 283 282 276 275 274 274
288 286 285 285 284 283 282 282 282 283 283 283 283 283 281 281 280 280 279 278 277 276 275 275 274 279 282 282 275 271 273 273
287 286 285 284 284 283 282 282 283 284 283 282 283 283 283 282 281 280 278 277 275 274 273 272 272 272 281 282 276 274 271 271
285 284 284 284 284 283 282 283 284 283 282 282 282 282 282 281 280 277 276 274 272 270 269 271 271 273 278 281 282 280 271 270
282 281 281 281 282 280 278 278 278 279 279 279 279 279 279 278 274 270 272 273 272 271 272 272 270 270 278 278 281 281 278 276
279 278 276 275 277 277 277 277 277 277 274 273 275 271 271 273 273 273 272 272 272 269 270 265 267 268 269 271 273 277 278 278
278 277 274 274 273 270 273 274 273 271 270 270 270 270 268 269 270 272 267 272 267 267 266 265 264 267 272 271 267 267 271 271
272 274 270 272 270 269 268 272 272 270 269 269 269 268 268 267 264 275 274 276 277 276 268 263 273 276 277 278 278 279 279 273
273 272 271 270 267 265 265 267 268 269 268 266 267 266 265 263 266 265 267 277 277 278 279 279 274 277 278 278 279 280 279 274
270 267 266 264 261 260 259 263 263 262 265 264 263 263 263 262 261 261 261 261 260 269 272 273 273 273 274 275 274 262 262 261
264 262 262 261 258 258 258 263 262 264 262 261 260 260 261 261 260 259 259 257 256 258 265 264 269 269 269 269 255 253 253 253

GFSFLT1_sfc_thetae_057.txt.gz
Theta_e
289 291 292 292 291 291 291 290 290 289 288 287 286 285 282 282 281 280 280 281 280 280 280 279 279 278 278 277 278 277 276 277
288 289 289 289 287 287 288 288 288 287 287 285 284 283 282 282 281 280 280 280 280 280 279 279 278 278 277 277 277 277 276 276
286 286 285 285 285 285 285 286 288 287 286 284 283 282 282 281 280 280 280 280 280 279 279 279 278 277 277 277 276 276 276 276
284 285 285 285 285 285 285 285 286 285 284 283 282 282 281 280 280 280 279 279 279 279 279 278 278 278 277 277 276 276 275 275
284 284 285 285 285 285 284 285 284 284 283 282 282 282 282 281 280 280 279 279 279 279 278 277 277 277 277 277 276 275 275 275
285 284 285 285 285 285 285 284 284 284 283 283 283 283 282 281 280 280 279 279 279 278 277 277 277 277 277 276 275 275 274 275
286 285 285 285 285 285 284 284 284 284 283 283 282 282 281 280 280 279 279 278 278 278 277 276 277 281 282 278 276 276 275 274
287 286 286 286 286 284 284 284 283 283 282 282 282 281 281 280 280 279 278 278 278 277 277 277 277 282 284 283 276 275 275 275
289 288 287 286 285 285 284 283 283 283 282 282 282 281 281 280 279 279 279 278 277 277 277 277 277 282 284 284 277 275 275 275
291 289 287 286 285 283 282 282 283 282 282 282 282 282 280 280 279 279 279 278 278 279 278 277 277 282 284 283 278 277 276 276
287 286 285 284 283 282 281 281 282 283 283 283 283 282 281 281 280 280 280 279 279 278 278 278 278 281 284 283 278 275 275 275
285 284 283 283 282 281 281 281 283 283 283 282 282 283 282 282 281 281 280 279 278 278 278 277 277 276 283 284 278 277 274 274
282 281 281 282 282 280 281 282 282 282 282 282 283 283 283 283 282 281 280 279 278 277 276 275 274 276 280 283 284 281 274 274
281 280 280 279 281 280 281 283 284 283 283 284 284 284 284 283 282 280 279 279 277 275 275 275 272 272 279 280 282 283 280 276
279 277 276 276 278 278 278 280 282 281 280 279 280 279 280 281 279 277 276 276 275 274 274 270 269 269 270 272 272 277 279 279
279 277 274 274 273 273 274 277 276 275 273 273 274 274 272 272 274 275 273 277 274 272 270 267 267 268 272 269 265 263 270 270
275 275 271 271 269 268 268 272 273 271 270 271 272 271 272 271 269 276 275 278 278 276 270 264 273 275 277 278 278 279 278 269
273 271 270 268 266 265 266 269 271 272 270 269 269 268 268 266 268 267 271 278 278 279 279 277 273 277 278 278 278 277 272 266
269 267 267 266 262 261 263 266 266 265 266 265 264 265 264 264 264 264 266 266 262 273 274 275 275 274 274 274 267 259 260 256
265 263 264 263 260 259 261 264 263 264 262 262 261 260 262 261 261 260 260 259 256 257 264 262 270 270 270 267 253 250 249 248

GFSFLT1_sfc_thetae_060.txt.gz
Theta_e
288 290 291 293 296 298 297 293 293 292 290 289 289 288 287 285 283 282 282 281 280 279 280 279 279 279 279 278 278 278 278 278
287 289 290 291 291 293 293 292 290 290 289 289 287 286 285 284 283 282 281 280 280 280 280 279 279 279 279 279 278 278 277 277
287 287 287 288 287 288 291 291 290 289 288 287 286 285 284 284 282 281 280 280 280 280 280 279 279 279 279 278 278 278 277 277
285 285 286 286 287 288 288 289 288 287 287 286 284 284 283 282 281 280 279 280 280 280 280 279 279 278 279 278 278 278 277 277
284 285 286 287 287 287 287 287 286 286 286 285 284 284 283 282 281 280 280 279 279 280 279 279 279 278 278 278 277 277 277 276
285 285 285 285 286 287 287 286 285 286 285 285 284 284 283 281 280 280 279 279 279 279 278 278 278 278 278 277 277 277 276 276
286 285 285 286 286 286 286 285 285 285 284 285 283 283 282 281 280 280 279 279 279 278 278 277 278 282 283 279 277 277 276 275
288 287 287 286 287 286 286 285 284 283 282 282 283 282 281 280 280 279 279 279 278 278 278 277 277 283 284 283 277 277 276 276
290 289 288 287 286 286 285 283 283 283 282 282 282 282 281 280 280 279 279 278 278 278 278 278 278 283 285 285 278 277 276 276
292 290 287 286 286 284 282 282 283 282 282 282 283 282 281 280 279 279 279 278 278 279 278 278 278 283 284 284 281 278 276 276
289 286 284 283 283 282 281 281 281 282 282 282 283 282 281 281 280 280 279 279 278 278 279 278 279 283 284 285 282 278 278 277
284 284 283 282 282 281 280 280 281 281 281 282 282 282 282 281 280 279 279 279 278 278 278 279 279 280 284 287 282 279 278 277
281 280 280 280 281 279 279 279 279 280 280 281 282 282 282 281 280 280 280 279 278 278 278 278 278 279 282 285 286 283 279 276
279 278 278 277 279 278 277 279 279 280 281 282 282 282 282 282 281 280 281 280 279 278 278 278 275 276 282 282 284 285 282 278
278 277 275 276 278 279 280 283 283 282 282 282 282 282 283 283 282 283 281 280 280 278 278 278 272 272 273 277 279 281 281 280
278 276 274 274 274 275 277 280 280 279 278 280 280 281 279 277 279 279 275 281 279 278 277 273 271 272 274 273 269 268 271 265
276 274 272 272 271 271 273 276 276 274 274 274 274 273 273 273 271 278 278 280 280 279 274 267 275 277 279 279 278 277 276 262
273 271 270 268 266 265 269 273 272 272 270 270 271 271 270 270 271 271 276 280 280 279 277 276 275 278 278 279 279 276 273 263
270 268 266 265 263 262 266 269 268 268 268 268 267 267 266 268 268 269 271 271 267 277 278 279 278 278 277 277 269 258 258 256
266 265 265 263 260 261 264 266 265 266 265 264 264 263 264 264 264 264 264 264 260 262 266 265 274 274 272 267 256 253 251 249

GFSFLT1_sfc_thetae_063.txt.gz
Theta_e
290 290 292 294 296 299 301 301 296 296 295 293 293 293 292 290 288 286 285 284 282 282 283 283 283 282 283 282 282 282 282 281
289 290 291 292 294 298 299 296 294 294 293 292 290 290 289 289 286 285 284 283 282 282 282 282 282 282 282 282 281 281 281 281
289 289 289 291 292 295 296 293 293 293 292 290 288 288 287 287 285 284 283 283 282 282 282 282 281 281 281 280 281 280 280 280
287 288 288 289 290 291 293 293 292 291 290 289 288 287 286 286 284 283 282 282 281 281 281 281 281 281 281 281 280 280 279 279
287 287 288 288 289 290 290 291 290 289 290 289 287 287 287 285 283 282 282 281 281 281 281 281 280 280 280 280 279 279 279 279
288 287 287 287 288 289 290 289 288 288 289 289 287 287 286 284 282 282 281 281 281 281 280 280 280 279 279 279 279 279 278 278
291 288 286 287 287 288 288 288 288 288 287 288 286 285 284 283 282 281 281 280 280 280 279 279 279 283 283 280 279 278 277 277
292 290 289 288 288 287 288 288 286 287 286 285 285 284 283 282 281 280 280 279 279 279 279 279 279 285 285 283 279 278 278 277
294 292 290 289 287 288 287 286 285 286 285 285 284 283 283 282 281 281 280 279 279 279 279 279 279 285 285 284 279 279 278 278
294 293 290 287 286 285 284 284 284 284 284 283 283 282 281 281 280 280 280 279 280 280 279 279 279 285 286 284 281 278 279 278
289 289 287 285 284 284 283 282 282 283 283 283 282 281 280 282 281 281 280 280 279 279 279 279 279 285 286 285 283 281 281 279
285 285 285 283 282 281 281 281 281 281 281 281 282 281 281 281 281 280 279 279 279 278 279 279 280 281 286 287 283 282 282 280
282 281 280 280 280 279 279 280 280 280 279 279 279 281 281 279 280 280 280 279 278 278 277 279 279 281 285 288 287 285 282 281
278 278 278 277 278 278 277 278 278 278 278 279 280 281 281 281 280 279 280 279 278 278 278 278 278 279 284 285 287 287 285 283
275 275 275 275 277 276 277 277 279 279 280 281 281 281 282 282 281 281 280 280 279 279 279 280 279 278 278 281 283 284 285 284
278 275 274 275 275 276 278 284 283 282 281 282 282 282 281 281 282 281 282 283 282 282 282 281 277 277 278 278 277 277 278 270
275 273 272 272 271 273 277 280 280 278 279 279 279 279 278 277 275 281 282 284 283 282 280 274 278 280 281 281 280 279 279 269
272 271 270 269 268 269 273 277 277 276 274 274 274 275 274 274 274 274 278 282 280 279 280 278 278 279 280 281 281 280 279 268
269 268 267 266 264 265 270 272 271 270 270 271 270 271 271 271 271 273 275 275 274 279 278 279 279 279 280 280 273 266 264 262
266 266 265 264 262 264 268 270 270 270 268 267 267 267 268 268 268 268 269 268 265 267 270 268 278 277 271 268 262 262 260 257

GFSFLT1_sfc_thetae_066.txt.gz
Theta_e
302 301 300 301 302 303 304 304 305 305 306 306 305 305 304 300 299 297 298 291 287 286 286 287 288 291 291 290 289 289 288 287
301 299 299 300 301 302 303 303 303 303 304 303 302 301 299 295 294 292 290 286 286 285 285 285 286 288 289 288 287 287 285 286
300 299 298 299 300 301 302 302 303 302 303 302 300 299 297 294 293 291 288 287 285 284 284 284 284 287 287 286 286 286 284 284
297 298 298 299 299 300 301 301 302 301 300 300 299 297 296 295 292 291 288 286 283 283 283 282 283 284 286 286 285 285 284 283
299 299 299 298 298 298 299 301 300 299 299 298 298 296 294 291 289 289 288 285 283 283 282 282 282 282 284 284 284 284 284 283
300 300 299 297 296 297 298 299 299 297 297 297 296 295 293 289 287 287 286 284 283 282 282 282 281 281 281 283 283 283 282 282
300 299 297 296 296 296 296 297 297 296 295 296 294 291 289 287 285 284 284 283 282 281 281 280 280 284 285 284 283 282 281 280
302 302 301 299 297 296 296 296 294 293 293 292 291 289 288 286 284 283 282 282 281 281 281 280 280 285 285 285 282 282 281 280
302 303 303 300 297 296 294 293 291 290 290 289 289 288 287 285 284 283 282 281 281 280 280 281 280 286 286 284 282 282 281 280
301 299 298 297 295 292 290 290 289 289 289 288 288 287 286 284 284 283 282 281 282 281 280 280 280 286 286 283 281 280 279 281
293 293 293 293 290 288 287 287 287 288 288 288 287 286 284 285 284 284 283 281 280 280 281 281 281 286 286 284 281 280 280 281
290 288 287 287 286 286 285 285 286 286 286 285 286 285 285 285 284 283 282 280 279 279 280 280 281 284 286 286 283 282 283 284
286 284 283 284 285 284 283 284 284 284 284 284 284 284 284 283 283 282 280 279 279 278 278 280 280 284 286 287 286 286 285 285
282 281 281 282 284 283 282 282 282 282 281 282 283 283 283 282 282 282 281 280 279 279 279 279 279 281 285 287 287 287 285 285
281 279 278 280 280 281 281 281 281 281 281 282 282 282 283 283 283 282 281 281 280 280 279 279 279 280 282 284 285 286 286 286
278 277 276 278 279 281 282 283 283 282 282 283 283 283 282 282 283 282 283 283 281 282 282 281 280 280 283 283 283 284 284 280
275 275 274 275 275 276 281 284 283 281 282 283 283 283 282 281 281 284 284 285 286 286 285 283 284 284 284 284 284 284 283 276
273 273 272 272 271 272 276 282 283 282 280 279 280 280 279 279 280 279 282 282 282 283 282 281 281 282 283 283 283 282 281 276
271 270 270 270 268 269 275 277 278 278 278 280 280 280 279 279 279 280 280 278 278 280 279 279 280 280 281 282 280 275 273 273
268 267 268 267 265 268 272 274 275 275 274 275 275 276 277 277 277 278 279 277 275 275 275 275 279 276 276 275 275 273 271 268